FW4738 Weather Reports


Display with metric or nautical units.
time (UTC)temp
F
wind
direction
speed
MPH
gust
MPH
rain 1hr
in
rain 24hr
in
rain mn
in
humidity
%
barometer
mb
20260506231634 49 207 3.0 11.0 0.00 0.00 0.02 77 1008.7
20260506231134 49 215 3.0 7.0 0.00 0.00 0.02 77 1008.7
20260506231034 49 204 3.0 6.0 0.00 0.00 0.02 77 1008.7
20260506230133 49 200 3.0 8.0 0.00 0.00 0.02 77 1008.7
20260506225633 49 196 4.0 9.0 0.00 0.00 0.02 76 1008.8
20260506225134 49 206 4.0 9.0 0.00 0.00 0.02 76 1008.9
20260506224636 49 208 4.0 9.0 0.00 0.00 0.02 76 1008.9
20260506224138 49 221 4.0 9.0 0.00 0.00 0.02 75 1008.9
20260506223636 49 192 4.0 9.0 0.00 0.00 0.02 76 1008.9
20260506223133 49 170 4.0 13.0 0.00 0.00 0.02 76 1008.9
20260506222632 49 208 4.0 13.0 0.00 0.00 0.02 75 1008.8
20260506222132 49 207 4.0 9.0 0.00 0.00 0.02 74 1008.9
20260506221632 49 190 4.0 11.0 0.00 0.00 0.02 75 1008.8
20260506221500 49 220 4.0 12.0 0.00 0.00 0.02 74 1008.8
20260506221001 50 217 4.0 12.0 0.00 0.00 0.02 74 1008.8
20260506220135 50 209 4.0 9.0 0.00 0.00 0.02 74 1008.9
20260506215633 50 178 3.0 7.0 0.00 0.00 0.02 75 1008.8
20260506215348 50 209 4.0 11.0 0.00 0.00 0.02 73 1008.9
20260506215253 50 204 4.0 11.0 0.00 0.00 0.02 74 1008.9
20260506214134 50 209 5.0 10.0 0.00 0.00 0.02 73 1008.9
20260506214019 51 190 5.0 10.0 0.00 0.00 0.02 71 1008.7
20260506213133 51 213 4.0 9.0 0.00 0.00 0.02 73 1008.8
20260506212633 51 165 4.0 9.0 0.00 0.00 0.02 73 1008.8
20260506212353 51 148 4.0 10.0 0.00 0.00 0.02 72 1008.9
20260506212300 51 210 4.0 10.0 0.00 0.00 0.02 71 1008.9
20260506211132 51 174 4.0 7.0 0.00 0.00 0.02 71 1009.0
20260506210634 51 186 4.0 8.0 0.00 0.00 0.02 73 1008.9
20260506210133 51 180 4.0 8.0 0.00 0.00 0.02 73 1008.8
20260506210009 51 182 4.0 8.0 0.00 0.00 0.02 71 1008.8
20260506205132 52 205 3.0 8.0 0.00 0.00 0.02 72 1008.7
20260506204633 52 184 3.0 7.0 0.00 0.00 0.02 71 1008.7
20260506204132 52 208 3.0 7.0 0.00 0.00 0.02 69 1008.8
20260506203927 53 197 4.0 8.0 0.00 0.00 0.02 72 1008.9
20260506203823 53 176 4.0 8.0 0.00 0.00 0.02 70 1008.8
20260506202634 52 235 4.0 8.0 0.00 0.00 0.02 73 1008.9
20260506202134 51 196 3.0 8.0 0.00 0.00 0.02 73 1009.1
20260506201633 50 221 3.0 7.0 0.00 0.00 0.02 74 1009.1
20260506201134 50 252 3.0 9.0 0.00 0.00 0.02 76 1009.2
20260506200630 50 239 3.0 9.0 0.00 0.00 0.02 76 1009.2
20260506200130 50 234 3.0 6.0 0.00 0.00 0.02 76 1009.2
20260506195848 49 228 3.0 8.0 0.00 0.00 0.02 76 1009.2
20260506195143 49 217 4.0 9.0 0.00 0.00 0.02 76 1009.2
20260506194630 49 149 3.0 9.0 0.00 0.00 0.02 76 1009.2
20260506194348 49 183 3.0 11.0 0.00 0.00 0.02 77 1009.3
20260506194255 49 165 3.0 7.0 0.00 0.00 0.02 77 1009.3
20260506193147 49 196 4.0 11.0 0.00 0.00 0.02 75 1009.4
20260506192632 49 150 4.0 8.0 0.00 0.00 0.02 76 1009.2
20260506192129 49 0 3.0 9.0 0.00 0.00 0.02 78 1009.2
20260506191624 49 0 3.0 9.0 0.00 0.00 0.02 78 1009.4
20260506191125 48 0 3.0 10.0 0.00 0.00 0.02 78 1009.5
20260506190959 48 0 3.0 10.0 0.00 0.00 0.02 79 1009.4
20260506190126 48 189 3.0 8.0 0.00 0.00 0.02 78 1009.5
20260506185959 47 200 3.0 6.0 0.00 0.00 0.02 79 1009.6
20260506185458 47 180 2.0 6.0 0.00 0.00 0.02 79 1009.5
20260506184625 47 211 2.0 5.0 0.00 0.00 0.02 78 1009.5
20260506184128 48 175 3.0 8.0 0.00 0.00 0.02 79 1009.5
20260506184011 48 205 2.0 8.0 0.00 0.00 0.02 79 1009.5
20260506183125 48 209 2.0 7.0 0.00 0.00 0.02 80 1009.7
20260506183009 48 180 2.0 8.0 0.00 0.00 0.02 80 1009.7
20260506182125 48 182 3.0 8.0 0.00 0.00 0.02 80 1009.6
20260506181627 48 177 2.0 6.0 0.00 0.00 0.02 79 1009.7
20260506181121 48 196 2.0 6.0 0.00 0.00 0.02 79 1009.7
20260506180604 48 200 2.0 6.0 0.00 0.00 0.02 79 1009.8
20260506180108 48 0 3.0 8.0 0.00 0.00 0.02 78 1009.8
20260506175604 48 0 3.0 8.0 0.00 0.00 0.02 79 1009.8
20260506175102 48 0 3.0 8.0 0.00 0.00 0.02 79 1009.7
20260506174602 48 0 3.0 6.0 0.00 0.00 0.02 80 1009.8
20260506174103 48 200 3.0 6.0 0.00 0.00 0.02 81 1009.7
20260506173604 47 171 2.0 6.0 0.00 0.00 0.02 81 1009.6
20260506173445 47 152 2.0 6.0 0.00 0.00 0.02 81 1009.5
20260506172605 47 176 3.0 8.0 0.00 0.00 0.02 81 1009.8
20260506172337 47 119 3.0 6.0 0.00 0.00 0.02 82 1009.4
20260506172233 47 206 3.0 8.0 0.00 0.00 0.02 81 1009.7
20260506171444 47 0 2.0 6.0 0.00 0.00 0.02 82 1009.6
20260506170601 47 0 2.0 6.0 0.00 0.00 0.02 82 1009.6
20260506165604 47 181 2.0 6.0 0.00 0.00 0.02 82 1009.7
20260506165213 47 261 3.0 10.0 0.00 0.00 0.02 82 1009.8
20260506164726 47 198 3.0 10.0 0.00 0.00 0.02 82 1009.8
20260506163944 47 163 4.0 10.0 0.00 0.00 0.02 85 1009.8
20260506163100 47 246 3.0 6.0 0.00 0.00 0.02 85 1009.9
20260506162601 46 163 3.0 7.0 0.00 0.00 0.02 85 1009.8
20260506162103 46 192 3.0 7.0 0.00 0.00 0.02 85 1010.0
20260506161602 46 212 3.0 8.0 0.00 0.00 0.02 85 1010.2
20260506161102 46 190 3.0 8.0 0.00 0.00 0.02 85 1010.2
20260506160601 46 209 3.0 7.0 0.00 0.00 0.02 85 1010.2
20260506160448 45 225 3.0 6.0 0.00 0.00 0.02 85 1010.2
20260506155600 45 186 2.0 6.0 0.00 0.00 0.02 85 1010.2
20260506155103 45 191 2.0 7.0 0.00 0.00 0.02 85 1010.3
20260506154600 45 192 3.0 8.0 0.00 0.00 0.02 86 1010.3
20260506154101 45 221 4.0 8.0 0.00 0.00 0.02 86 1010.3
20260506153603 45 200 4.0 9.0 0.00 0.00 0.02 87 1010.2
20260506153056 45 184 3.0 9.0 0.00 0.00 0.02 87 1010.1
20260506152552 45 176 3.0 7.0 0.00 0.00 0.02 87 1010.3
20260506152045 45 186 4.0 6.0 0.00 0.00 0.02 88 1010.3
20260506151544 45 185 3.0 6.0 0.00 0.00 0.02 88 1010.2
20260506151042 45 185 3.0 10.0 0.00 0.00 0.02 89 1010.3
20260506150544 45 167 3.0 10.0 0.00 0.00 0.02 89 1010.4
20260506150042 45 185 3.0 7.0 0.01 0.00 0.02 90 1010.4
20260506145544 45 196 3.0 9.0 0.01 0.00 0.01 89 1010.4
20260506145414 45 199 3.0 9.0 0.01 0.00 0.01 91 1010.4
20260506144834 45 177 3.0 7.0 0.02 0.00 0.01 91 1010.2
20260506144829 45 183 3.0 7.0 0.02 0.00 0.01 90 1010.1
20260506144713 45 189 3.0 5.0 0.01 0.00 0.01 91 1010.2
20260506144429 45 212 3.0 7.0 0.02 0.00 0.01 90 1010.2
20260506144424 45 198 4.0 7.0 0.02 0.00 0.01 90 1010.2
20260506142042 44 198 2.0 6.0 0.02 0.00 0.01 90 1010.2
20260506141848 45 197 3.0 6.0 0.01 0.00 0.01 89 1010.3
20260506141839 44 175 2.0 6.0 0.01 0.00 0.00 89 1010.3
20260506141828 45 192 3.0 6.0 0.02 0.00 0.01 90 1010.2
20260506141823 45 187 2.0 6.0 0.02 0.00 0.01 89 1010.2
20260506141709 44 244 3.0 6.0 0.02 0.00 0.01 89 1010.3
20260506135039 44 187 2.0 6.0 0.01 0.00 0.00 88 1010.3
20260506134542 44 179 3.0 6.0 0.01 0.00 0.00 88 1010.3
20260506134423 45 191 2.0 6.0 0.00 0.00 0.00 88 1010.1
20260506133540 44 208 1.0 4.0 0.00 0.00 0.00 87 1010.2
20260506133037 44 203 2.0 5.0 0.00 0.00 0.00 87 1010.2
20260506132541 44 197 3.0 6.0 0.00 0.00 0.00 87 1010.1
20260506132039 44 168 3.0 6.0 0.00 0.00 0.00 87 1010.0
20260506131923 44 206 3.0 6.0 0.00 0.00 0.00 87 1010.1
20260506131039 44 188 3.0 9.0 0.00 0.00 0.00 87 1010.2
20260506130925 44 194 3.0 9.0 0.00 0.00 0.00 87 1010.1
20260506130039 44 170 4.0 7.0 0.00 0.00 0.00 87 1010.2
20260506125541 44 190 4.0 11.0 0.00 0.00 0.00 87 1010.3
20260506125039 44 198 4.0 11.0 0.00 0.00 0.00 87 1010.2
20260506124540 44 180 4.0 7.0 0.00 0.00 0.00 87 1009.9
20260506124039 44 180 4.0 8.0 0.00 0.00 0.00 87 1009.9
20260506123539 45 184 5.0 8.0 0.00 0.00 0.00 88 1010.0
20260506123038 45 186 4.0 9.0 0.00 0.00 0.00 88 1010.0
20260506122924 45 182 4.0 8.0 0.00 0.00 0.00 87 1010.0
20260506122743 45 182 4.0 9.0 0.00 0.00 0.00 87 1010.1
20260506121541 45 193 4.0 9.0 0.00 0.00 0.00 87 1009.9
20260506121417 45 189 5.0 9.0 0.00 0.00 0.00 87 1010.0
20260506120539 45 184 4.0 11.0 0.00 0.00 0.00 87 1010.1
20260506120038 45 173 4.0 0.0 0.00 0.00 0.00 87 1010.0
20260506115547 45 191 3.0 8.0 0.00 0.00 0.00 87 1010.0
20260506115243 45 194 4.0 8.0 0.00 0.00 0.00 89 1007.2
20260506115052 45 171 4.0 6.0 0.00 0.00 0.00 90 1007.2
20260506114551 45 153 4.0 8.0 0.00 0.00 0.00 90 1007.1
20260506114051 45 192 4.0 8.0 0.00 0.00 0.00 90 1007.2
20260506113242 45 178 4.0 5.0 0.00 0.00 0.00 90 1007.2
20260506113025 45 176 4.0 5.0 0.00 0.00 0.00 90 1007.2
20260506112547 45 184 3.0 5.0 0.00 0.00 0.00 87 1009.9
20260506112357 0 0.0 0.0 0.00 0.00 0.00
20260506112349 45 158 3.0 0.0 0.00 0.00 0.00 90 1007.2
20260506111612 0 0.0 0.0 0.00 0.00 0.00
20260506111044 0 0.0 0.0 0.00 0.00 0.00
20260506111040 0 0.0 0.0 0.00 0.00 0.00
20260506110505 0 0.0 0.0 0.00 0.00 0.00
20260506105510 0 0.0 0.0 0.00 0.00 0.00
20260506104934 0 0.0 0.0 0.00 0.00 0.00
20260506104437 0 0.0 0.0 0.00 0.00 0.00
20260506103905 0 0.0 0.0 0.00 0.00 0.00
20260506103410 0 0.0 0.0 0.00 0.00 0.00
20260506103335 0 0.0 0.0 0.00 0.00 0.00
20260506102338 0 0.0 0.0 0.00 0.00 0.00
20260506101806 0 0.0 0.0 0.00 0.00 0.00
20260506101308 0 0.0 0.0 0.00 0.00 0.00
20260506100733 0 0.0 0.0 0.00 0.00 0.00
20260506100237 0 0.0 0.0 0.00 0.00 0.00
20260506095708 0 0.0 0.0 0.00 0.00 0.00
20260506095212 0 0.0 0.0 0.00 0.00 0.00
20260506094607 0 0.0 0.0 0.00 0.00 0.00
20260506094337 0 0.0 0.0 0.00 0.00 0.00
20260506093534 0 0.0 0.0 0.00 0.00 0.00
20260506093037 0 0.0 0.0 0.00 0.00 0.00
20260506092505 0 0.0 0.0 0.00 0.00 0.00
20260506092012 0 0.0 0.0 0.00 0.00 0.00
20260506091434 0 0.0 0.0 0.00 0.00 0.00
20260506090937 0 0.0 0.0 0.00 0.00 0.00
20260506090405 0 0.0 0.0 0.00 0.00 0.00
20260506085911 0 0.0 0.0 0.00 0.00 0.00
20260506085334 0 0.0 0.0 0.00 0.00 0.00
20260506085139 0 0.0 0.0 0.00 0.00 0.00
20260506084306 0 0.0 0.0 0.00 0.00 0.00
20260506084036 0 0.0 0.0 0.00 0.00 0.00
20260506083234 0 0.0 0.0 0.00 0.00 0.00
20260506082738 0 0.0 0.0 0.00 0.00 0.00
20260506082208 0 0.0 0.0 0.00 0.00 0.00
20260506081713 0 0.0 0.0 0.00 0.00 0.00
20260506081106 0 0.0 0.0 0.00 0.00 0.00
20260506080609 0 0.0 0.0 0.00 0.00 0.00
20260506073437 0 0.0 0.0 0.00 0.00 0.00
20260506073144 0 0.0 0.0 0.00 0.00 0.00
20260506072640 0 0.0 0.0 0.00 0.00 0.00
20260506071833 0 0.0 0.0 0.00 0.00 0.00
20260506071336 0 0.0 0.0 0.00 0.00 0.00
20260506070806 0 0.0 0.0 0.00 0.00 0.00
20260506070309 0 0.0 0.0 0.00 0.00 0.00
20260506062038 0 0.0 0.0 0.00 0.00 0.00
20260506061505 0 0.0 0.0 0.00 0.00 0.00
20260506061012 0 0.0 0.0 0.00 0.00 0.00
20260506060435 0 0.0 0.0 0.00 0.00 0.00
20260506051136 0 0.0 0.0 0.00 0.00 0.00
20260506050640 0 0.0 0.0 0.00 0.00 0.00
20260506050106 0 0.0 0.0 0.00 0.00 0.00
20260506045033 0 0.0 0.0 0.00 0.00 0.00
20260506044537 0 0.0 0.0 0.00 0.00 0.00
20260506044007 0 0.0 0.0 0.00 0.00 0.00
20260506043511 0 0.0 0.0 0.00 0.00 0.00
20260506042934 0 0.0 0.0 0.00 0.00 0.00
20260506042438 0 0.0 0.0 0.00 0.00 0.00
20260506041906 0 0.0 0.0 0.00 0.00 0.00
20260506041419 0 0.0 0.0 0.00 0.00 0.00
20260506041149 0 0.0 0.0 0.00 0.00 0.00
20260506035805 0 0.0 0.0 0.00 0.00 0.00
20260506035309 0 0.0 0.0 0.00 0.00 0.00
20260506034708 0 0.0 0.0 0.00 0.00 0.00
20260506034212 0 0.0 0.0 0.00 0.00 0.00
20260506033640 0 0.0 0.0 0.00 0.00 0.00
20260506033139 0 0.0 0.0 0.00 0.00 0.00
20260506032606 0 0.0 0.0 0.00 0.00 0.00
20260506032109 0 0.0 0.0 0.00 0.00 0.00
20260506031534 0 0.0 0.0 0.00 0.00 0.00
20260506031043 0 0.0 0.0 0.00 0.00 0.00
20260506030506 0 0.0 0.0 0.00 0.00 0.00
20260506030016 0 0.0 0.0 0.00 0.00 0.00
20260506025433 0 0.0 0.0 0.00 0.00 0.00
20260506024938 0 0.0 0.0 0.00 0.00 0.00
20260506024812 51 254 1.0 4.0 0.00 0.00 0.00 69 1008.1
20260506024046 51 254 1.0 4.0 0.00 0.00 0.00 69 1008.1
20260506023317 51 248 1.0 4.0 0.00 0.00 0.00 68 1008.2
20260506022802 51 248 1.0 4.0 0.00 0.00 0.00 69 1008.2
20260506022305 51 248 1.0 4.0 0.00 0.00 0.00 70 1008.2
20260506021856 52 257 2.0 6.0 0.00 0.00 0.00 71 1008.2
20260506021844 51 254 2.0 6.0 0.00 0.00 0.00 71 1008.2
20260506021824 51 240 1.0 4.0 0.00 0.00 0.00 71 1008.2
20260506020304 52 259 2.0 8.0 0.00 0.00 0.00 72 1008.3
20260506015803 52 241 2.0 8.0 0.00 0.00 0.00 72 1008.3
20260506015333 52 257 1.0 6.0 0.00 0.00 0.00 72 1008.1
20260506014925 53 246 1.0 4.0 0.00 0.00 0.00 72 1008.1
20260506014138 53 238 2.0 7.0 0.00 0.00 0.00 71 1007.9
20260506013305 53 258 2.0 7.0 0.00 0.00 0.00 71 1008.1
20260506012802 53 249 3.0 7.0 0.00 0.00 0.00 72 1008.1
20260506012639 53 261 3.0 8.0 0.00 0.00 0.00 72 1008.0
20260506011809 53 243 2.0 8.0 0.00 0.00 0.00 72 1007.9
20260506011639 53 250 2.0 6.0 0.00 0.00 0.00 72 1007.5
20260506010805 53 259 2.0 5.0 0.00 0.00 0.00 73 1007.5
20260506010304 53 234 2.0 8.0 0.00 0.00 0.00 74 1007.4
20260506010149 53 264 3.0 8.0 0.00 0.00 0.00 74 1007.3
20260506005638 53 259 2.0 6.0 0.00 0.00 0.00 74 1007.1
20260506005133 53 243 2.0 5.0 0.00 0.00 0.00 74 1007.1
20260506004628 54 225 3.0 8.0 0.00 0.00 0.00 74 1006.9
20260506003802 54 282 4.0 11.0 0.00 0.00 0.00 73 1006.9
20260506003303 54 248 3.0 11.0 0.00 0.00 0.00 73 1006.8
20260506002802 54 238 2.0 6.0 0.00 0.00 0.00 73 1006.6
20260506002301 54 244 2.0 7.0 0.00 0.00 0.00 73 1006.5
20260506001802 54 269 2.0 7.0 0.00 0.00 0.00 73 1006.4
20260506001640 55 241 2.0 5.0 0.00 0.00 0.00 72 1006.3
20260506000801 55 236 2.0 6.0 0.00 0.00 0.00 71 1006.2
20260506000332 55 248 2.0 6.0 0.00 0.00 0.00 70 1005.9
20260505235803 55 232 3.0 8.0 0.00 0.00 0.00 70 1005.7
20260505235626 55 254 3.0 8.0 0.00 0.00 0.00 69 1005.7
20260505234801 55 238 3.0 8.0 0.00 0.00 0.00 68 1005.7
20260505234303 55 255 4.0 8.0 0.00 0.00 0.00 68 1005.8
20260505233802 55 256 5.0 13.0 0.00 0.00 0.00 67 1005.6
20260505233333 55 280 5.0 13.0 0.00 0.00 0.00 67 1005.6
20260505233135 56 269 4.0 11.0 0.00 0.00 0.00 69 1005.6
20260505232306 57 251 5.0 11.0 0.00 0.00 0.00 67 1005.6